Regional Weather Roundup
Issued by NWS

Home | Current Version | Previous Version | Graphics & Text | Print | Product List | Glossary On
Versions: 1 2 3 4 5 6 7 8 9 10 11 12 13 14 15 16 17 18 19 20 21 22 23 24 25 26 27 28 29 30 31 32 33 34 35 36 37 38 39 40 41 42 43 44 45 46 47 48 49 50
884
ASUS43 KIND 232109
RWRIN

WEATHER ROUNDUP FOR INDIANA
NATIONAL WEATHER SERVICE INDIANAPOLIS IN
400 PM EST THU NOV 23 2017

NOTE: "FAIR" INDICATES FEW OR NO CLOUDS BELOW 12,000 FEET WITH NO
SIGNIFICANT WEATHER AND/OR OBSTRUCTIONS TO VISIBILITY.

* - STATION DOES NOT REPORT WEATHER SUCH AS PRECIPITATION OR FOG.

+ - STATION NOT QUALITY CONTROLLED BY THE NATIONAL WEATHER SERVICE.
    USE DATA WITH CAUTION...ESPECIALLY DEWPOINT AND RELATIVE
    HUMIDITY OBSERVATIONS.

INZ001>003-010>013-019-020-232200-
NORTHWEST INDIANA

CITY           SKY/WX    TMP DP  RH WIND       PRES   REMARKS
GARY /AIRPORT/ SUNNY     48  21  34 SW14      29.93S
KNOX *+        SUNNY     43  27  52 S13       29.94F
LA PORTE +     SUNNY     44  26  49 SW12      29.94S
MICHIGAN CITY+ SUNNY     45  27  49 SW10G16   29.93F
MONTICELLO +   SUNNY     44  22  41 S10       29.95F
RENSSELAER +   SUNNY     45  19  36 SW13      29.95S
VALPARAISO     SUNNY     47  26  44 SW12      29.94S

$$

LMZ046-743>745-232200-
SOUTHERN LAKE MICHIGAN

STATION/POSITION TIME  TEMP    WIND        PRES    WAVE
                       AIR SEA DIR/SP/G            HT
                 (UTC) (F)     (DEG/KT/KT) (MB)    (FT)
BURNS HARBOR     2040   46     210/ 10/ 15 1013.9S
MICHIGAN CITY    2040   44     190/ 13/ 15   N/A

$$

INZ004-005-014>016-021>024-232200-
NORTH CENTRAL INDIANA

CITY           SKY/WX    TMP DP  RH WIND       PRES   REMARKS
GOSHEN         SUNNY     42  21  43 S15       29.94F
LOGANSPORT +   SUNNY     43  27  52 S10       29.97F
PERU/GRISSOM   SUNNY     44  23  43 SW12      29.96F
ROCHESTER +    SUNNY     45  25  45 S9        29.95F
SOUTH BEND     SUNNY     43  24  47 SW13      29.94S
WARSAW +       SUNNY     43  23  45 S6        29.95F

$$

INZ006>009-017-018-025>027-232200-
NORTHEAST INDIANA

CITY           SKY/WX    TMP DP  RH WIND       PRES   REMARKS
AUBURN +       SUNNY     41  21  45 SW5       29.97S
FORT WAYNE     MOSUNNY   43  24  47 SW12      29.98S
HUNTINGTON +   SUNNY     42  19  40 SW6       29.97S
KENDALLVILLE + SUNNY     41  22  48 SW8       29.95F

$$

INZ028-029-035-036-043>045-051>053-232200-
WEST CENTRAL INDIANA

CITY           SKY/WX    TMP DP  RH WIND       PRES   REMARKS
CRAWFORDSVL +  SUNNY     42  24  48 S10       29.98S
GREENCASTLE +  SUNNY     43  18  36 S6        29.99F
LAFAYETTE      SUNNY     45  24  43 VRB7      29.97S
TERRE HAUTE    SUNNY     46  22  38 S13       29.99F

$$

INZ030>032-037>040-046>048-054>057-064-065-232200-
CENTRAL INDIANA

CITY           SKY/WX    TMP DP  RH WIND       PRES   REMARKS
CP ATTERBURY + SUNNY     46  19  34 SW6       30.01F
COLUMBUS       MOSUNNY   45  19  36 S9        30.02F
FISHERS *+     SUNNY     45  25  45 S10       29.99S
FRANKFORT +    CLOUDY    47  24  40 SW9       29.99S
GREENWOOD *+   SUNNY     48  21  35 SW9       30.01S
INDIANAPOLIS   MOSUNNY   45  19  35 S10       29.99F
-EAGLE CREEK   SUNNY     45  18  34 S10       29.98F
KOKOMO +       SUNNY     45  21  38 SW10      29.98S
MARION +       SUNNY     42  24  49 SW12      29.99S
MT COMFORT *+  SUNNY     45  27  49 S9        30.00S
SHELBYVILLE    SUNNY     45  24  43 S13       30.00F
ZIONSVILLE +   SUNNY     43  20  39 S9        29.99S

$$

INZ033-034-041-042-049-050-058-059-232200-
EAST CENTRAL INDIANA

CITY           SKY/WX    TMP DP  RH WIND       PRES   REMARKS
MUNCIE         SUNNY     45  23  42 S12       29.98F
RICHMOND +     SUNNY     41  23  48 S10       30.01S

$$

INZ060-061-067>069-081>083-085>088-232200-
SOUTHWEST INDIANA

CITY           SKY/WX    TMP DP  RH WIND       PRES   REMARKS
EVANSVILLE     SUNNY     49  22  34 SW9       30.03F
HUNTINGBURG +  SUNNY     48  25  40 S7        30.03F
WASHINGTON +   SUNNY     47  18  31 S8        30.01F

$$

INZ062-063-066-070>080-084-089>092-232200-
SOUTH CENTRAL AND SOUTHEAST INDIANA

CITY           SKY/WX    TMP DP  RH WIND       PRES   REMARKS
BEDFORD +      SUNNY     46  19  34 S8        30.01F
BLOOMINGTON    SUNNY     47  20  34 S6        30.00F
MADISON *+     SUNNY     46  21  36 S7        30.05S
NORTH VERNON + SUNNY     45  23  42 S5        30.03F
SEYMOUR +      SUNNY     48  25  40 S7        30.03F

$$





USA.gov is the U.S. government's official web portal to all federal, state and local government web resources and services.